TimeCDT,TemperatureF,Dew PointF,Humidity,Sea Level PressureIn,VisibilityMPH,Wind Direction,Wind SpeedMPH,Gust SpeedMPH,PrecipitationIn,Events,Conditions,WindDirDegrees,DateUTC
12:53 AM,55.9,51.1,84,29.97,10.0,NW,5.8,-,N/A,,Clear,320,2013-07-23 05:53:00
1:53 AM,54.0,50.0,86,29.97,10.0,NNW,6.9,-,N/A,,Clear,340,2013-07-23 06:53:00
2:53 AM,53.1,48.9,86,29.97,10.0,North,5.8,-,N/A,,Clear,350,2013-07-23 07:53:00
3:53 AM,52.0,48.9,89,29.97,10.0,North,5.8,-,N/A,,Clear,360,2013-07-23 08:53:00
4:53 AM,52.0,48.9,89,29.99,10.0,North,4.6,-,N/A,,Clear,350,2013-07-23 09:53:00
5:53 AM,51.1,48.0,89,30.00,10.0,Calm,Calm,-,N/A,,Clear,0,2013-07-23 10:53:00
6:53 AM,53.1,48.9,86,30.03,10.0,WNW,4.6,-,N/A,,Clear,300,2013-07-23 11:53:00
7:53 AM,55.9,51.1,84,30.04,10.0,North,5.8,-,N/A,,Clear,350,2013-07-23 12:53:00
8:53 AM,61.0,53.1,75,30.05,10.0,Variable,3.5,-,N/A,,Clear,0,2013-07-23 13:53:00
9:53 AM,64.9,54.0,68,30.05,10.0,NNE,3.5,-,N/A,,Scattered Clouds,30,2013-07-23 14:53:00
10:53 AM,69.1,54.0,58,30.05,10.0,NE,4.6,-,N/A,,Clear,40,2013-07-23 15:53:00
11:53 AM,71.1,52.0,51,30.05,10.0,ENE,5.8,-,N/A,,Partly Cloudy,60,2013-07-23 16:53:00
12:53 PM,72.0,53.1,51,30.06,10.0,North,8.1,-,N/A,,Partly Cloudy,360,2013-07-23 17:53:00
1:53 PM,73.9,52.0,46,30.06,10.0,NNW,5.8,-,N/A,,Mostly Cloudy,340,2013-07-23 18:53:00
2:53 PM,73.9,51.1,45,30.06,10.0,North,6.9,-,N/A,,Partly Cloudy,360,2013-07-23 19:53:00
3:53 PM,75.0,51.1,43,30.04,10.0,NNW,6.9,-,N/A,,Partly Cloudy,330,2013-07-23 20:53:00
4:53 PM,73.9,53.1,48,30.04,10.0,North,9.2,-,N/A,,Scattered Clouds,10,2013-07-23 21:53:00
5:53 PM,75.0,52.0,44,30.03,10.0,North,11.5,-,N/A,,Clear,350,2013-07-23 22:53:00
6:53 PM,73.9,52.0,46,30.01,10.0,North,12.7,-,N/A,,Clear,10,2013-07-23 23:53:00
7:53 PM,69.1,52.0,54,30.03,10.0,NE,5.8,-,N/A,,Clear,40,2013-07-24 00:53:00
8:53 PM,66.9,54.0,63,30.03,10.0,NE,4.6,-,N/A,,Mostly Cloudy,40,2013-07-24 01:53:00
9:53 PM,63.0,53.1,70,30.04,10.0,ENE,3.5,-,N/A,,Clear,70,2013-07-24 02:53:00
10:53 PM,63.0,54.0,72,30.04,10.0,ENE,3.5,-,N/A,,Partly Cloudy,60,2013-07-24 03:53:00
11:53 PM,64.0,53.1,67,30.04,10.0,Calm,Calm,-,N/A,,Overcast,0,2013-07-24 04:53:00